Regional Weather Roundup
Issued by NWS Jackson, KY

Home | Current Version | Previous Version | Text Only | Print | Product List | Glossary On
Versions: 1 2 3 4 5 6 7 8 9 10 11 12 13 14 15 16 17 18 19 20 21 22 23 24 25 26 27 28 29 30 31 32 33 34 35 36 37 38 39 40 41 42 43 44 45 46 47 48 49 50
000
ASUS43 KJKL 301710
RWRJKL

EAST KENTUCKY HOURLY WEATHER ROUNDUP
NATIONAL WEATHER SERVICE JACKSON KY
100 PM EDT MON MAY 30 2016

NOTE: "FAIR" INDICATES FEW OR NO CLOUDS BELOW 12,000 FEET WITH
NO SIGNIFICANT WEATHER AND/OR OBSTRUCTIONS TO VISIBILITY.

* THESE REPORTS ARE NOT UNDER NWS QUALITY CONTROL AND MAY NOT
  REPORT WEATHER SUCH AS PRECIPITATION AND FOG.

KYZ079-080-083-085-087-088-110-112-115-119-120-301800
...EASTERN KENTUCKY...

CITY           SKY/WX    TMP DP  RH WIND       PRES   REMARKS
JACKSON        PTSUNNY   79  65  62 CALM      30.07S
LONDON         MOSUNNY   82  64  54 N8        30.05F
SOMERSET*      PTSUNNY   81  57  44 N7        30.05F
MONTICELLO*    SUNNY     83  63  50 NW10G17   30.06F
WILLIAMSBURG*  SUNNY     81  61  50 N5        30.04F
MIDDLESBORO*   PTSUNNY   81  66  58 CALM      30.05S
HARLAN APT*    PTSUNNY   79  61  53 CALM      30.05F
HAZARD APT*    PTSUNNY   79  64  61 N5        30.07
BLACK MTN*       N/A    N/A N/A N/A VRB2        N/A
PIKE CO APT*     N/A     77  63  61 N5        30.07S
BIG SANDY APT* MOSUNNY   80  65  60 CALM      30.05F
MOREHEAD APT*  MOSUNNY   79  64  61 N7        30.08F
ASHLAND*       MOSUNNY   79  68  69 NE3       30.02F
$$

KYZ035-036-041-042-044-050-067-078-099-301800
...CENTRAL KENTUCKY...

CITY           SKY/WX    TMP DP  RH WIND       PRES   REMARKS
MT STERLING*   MOSUNNY   81  66  61 NE5       30.07F
FLEMING/MASON* SUNNY    N/A N/A N/A NE5       30.07F
DANVILLE*      MOSUNNY   81  61  50 N7        30.07S
RICHMOND*      MOSUNNY   81  61  50 N5        30.05F
LEXINGTON      SUNNY     83  62  49 N6        30.05F
FRANKFORT      MOSUNNY   84  60  44 VRB6      30.04F
LOUISVILLE     PTSUNNY   86  57  37 N9        30.04F
LEBANON*         N/A     82  63  51 NW7       30.06F
GLASGOW*       MOSUNNY   84  58  41 NE3       30.05F
BOWLING GREEN  SUNNY     85  60  42 NE5       30.05F
$$

KYZ091>093-OHZ055-061-077-WVZ005-015-034-035-042-301800
...SOUTHERN OHIO/WEST VIRGINIA...

CITY           SKY/WX    TMP DP  RH WIND       PRES   REMARKS
COVINGTON      MOSUNNY   83  58  42 N6        30.05F
COLUMBUS       PTSUNNY   80  60  50 N7        30.03F
DAYTON         MOSUNNY   81  56  42 N6        30.07F
WILMINGTON     MOSUNNY   81  60  48 NW8       30.06F
HUNTINGTON     PTSUNNY   79  64  60 N6        30.04S
CHARLESTON       N/A     80  61  52 CALM      30.03F
PINEVILLE*       N/A     82  58  45 MISG      30.10F
BECKLEY        PTSUNNY   76  60  57 NW9       30.08S
BLUEFIELD        N/A     76  56  49 W6        30.10F
LOGAN CO APT*    N/A     79  61  53 VRB7      30.05F
$$

VAZ002-007-008-TNZ017-027-036-066-071-301800
...SOUTHWEST VIRGINIA/EAST TENNESSEE...

CITY           SKY/WX    TMP DP  RH WIND       PRES   REMARKS
WISE*          PTSUNNY   79  54  41 CALM      30.12S
JONESVILLE*      N/A     81  64  57 CALM      30.06F
ABINGDON*        N/A     81  63  54 CALM      30.07F
BRISTOL        MOSUNNY   81  63  54 W6        30.05F
SEVIERVILLE*     N/A     84  63  48 NW7       30.02F
KNOXVILLE      MOSUNNY   83  64  52 E5        30.02F
OAK RIDGE      MOSUNNY   84  63  49 CALM      30.03F
CROSSVILLE     PTSUNNY   82  60  47 N9        30.08F
NASHVILLE      MOSUNNY   86  60  41 E7        30.05F
$$

...KEY TO REMARKS...
VSB - VISIBILITY IN MILES
WCI - WIND CHILL INDEX
HX  - HEAT INDEX

$$



USA.gov is the U.S. government's official web portal to all federal, state and local government web resources and services.